| time (UTC) | temp F | wind direction | speed MPH | gust MPH | rain 1hr in | rain 24hr in | rain mn in | humidity % | barometer mb |
| 20260506133102 | 74 | 146 | 2.0 | 10.0 | 0.00 | 0.00 | 0.00 | 72 | 1016.4 |
| 20260506131509 | 73 | 217 | 2.0 | 6.0 | 0.00 | 0.00 | 0.00 | 72 | 1016.5 |
| 20260506130041 | 72 | 165 | 2.0 | 9.0 | 0.00 | 0.00 | 0.00 | 74 | 1016.5 |
| 20260506124615 | 70 | 156 | 1.0 | 4.0 | 0.00 | 0.00 | 0.00 | 76 | 1016.4 |
| 20260506123033 | 67 | 167 | 0.0 | 3.0 | 0.00 | 0.00 | 0.00 | 80 | 1016.3 |
| 20260506121611 | 64 | 88 | 0.0 | 2.0 | 0.00 | 0.00 | 0.00 | 82 | 1016.0 |
| 20260506120044 | 62 | 88 | 0.0 | 2.0 | 0.00 | 0.00 | 0.00 | 86 | 1015.8 |
| 20260506114509 | 59 | 88 | 0.0 | 0.0 | 0.00 | 0.00 | 0.00 | 90 | 1015.7 |
| 20260506113043 | 58 | 88 | 0.0 | 1.0 | 0.00 | 0.00 | 0.00 | 90 | 1015.6 |
| 20260506111508 | 56 | 137 | 0.0 | 0.0 | 0.00 | 0.00 | 0.00 | 91 | 1015.7 |
| 20260506110045 | 56 | 137 | 0.0 | 0.0 | 0.00 | 0.00 | 0.00 | 90 | 1015.6 |
| 20260506104533 | 56 | 137 | 0.0 | 0.0 | 0.00 | 0.00 | 0.00 | 90 | 1015.4 |
| 20260506103105 | 56 | 137 | 0.0 | 0.0 | 0.00 | 0.00 | 0.00 | 90 | 1015.3 |
| 20260506101524 | 56 | 137 | 0.0 | 0.0 | 0.00 | 0.00 | 0.00 | 89 | 1015.1 |
| 20260506100105 | 56 | 137 | 0.0 | 0.0 | 0.00 | 0.00 | 0.00 | 89 | 1015.3 |
| 20260506094534 | 57 | 137 | 0.0 | 0.0 | 0.00 | 0.00 | 0.00 | 88 | 1015.3 |
| 20260506093104 | 57 | 137 | 0.0 | 0.0 | 0.00 | 0.00 | 0.00 | 88 | 1015.3 |
| 20260506091522 | 56 | 137 | 0.0 | 0.0 | 0.00 | 0.00 | 0.00 | 88 | 1015.3 |
| 20260506090054 | 58 | 137 | 0.0 | 0.0 | 0.00 | 0.00 | 0.00 | 88 | 1015.2 |
| 20260506084517 | 58 | 137 | 0.0 | 0.0 | 0.00 | 0.00 | 0.00 | 88 | 1014.9 |
| 20260506083058 | 58 | 137 | 0.0 | 0.0 | 0.00 | 0.00 | 0.00 | 88 | 1015.1 |
| 20260506081521 | 59 | 137 | 0.0 | 0.0 | 0.00 | 0.00 | 0.00 | 87 | 1015.1 |
| 20260506080113 | 59 | 137 | 0.0 | 0.0 | 0.00 | 0.00 | 0.00 | 87 | 1015.2 |
| 20260506073103 | 59 | 137 | 0.0 | 0.0 | 0.00 | 0.00 | 0.00 | 86 | 1015.0 |
| 20260506071515 | 59 | 137 | 0.0 | 0.0 | 0.00 | 0.00 | 0.00 | 85 | 1014.7 |
| 20260506061528 | 59 | 137 | 0.0 | 0.0 | 0.00 | 0.00 | 0.00 | 85 | 1015.5 |
| 20260506060106 | 59 | 137 | 0.0 | 0.0 | 0.00 | 0.00 | 0.00 | 85 | 1015.9 |
| 20260506050105 | 61 | 137 | 0.0 | 0.0 | 0.00 | 0.00 | 0.00 | 82 | 1016.3 |
| 20260506044515 | 61 | 137 | 0.0 | 2.0 | 0.00 | 0.00 | 0.00 | 81 | 1016.3 |
| 20260506043053 | 62 | 137 | 0.0 | 0.0 | 0.00 | 0.00 | 0.00 | 80 | 1016.3 |
| 20260506041512 | 62 | 137 | 0.0 | 2.0 | 0.00 | 0.00 | 0.00 | 78 | 1016.4 |
| 20260506040050 | 63 | 137 | 0.0 | 0.0 | 0.00 | 0.00 | 0.00 | 77 | 1016.4 |
| 20260506034519 | 63 | 137 | 0.0 | 0.0 | 0.00 | 0.00 | 0.00 | 76 | 1016.4 |
| 20260506033054 | 64 | 137 | 0.0 | 0.0 | 0.00 | 0.00 | 0.00 | 74 | 1016.4 |
| 20260506031515 | 65 | 137 | 0.0 | 2.0 | 0.00 | 0.00 | 0.00 | 71 | 1016.3 |
| 20260506030051 | 68 | 137 | 1.0 | 2.0 | 0.00 | 0.00 | 0.00 | 67 | 1016.0 |
| 20260506024526 | 67 | 137 | 0.0 | 3.0 | 0.00 | 0.00 | 0.00 | 69 | 1016.1 |
| 20260506023056 | 68 | 137 | 1.0 | 3.0 | 0.00 | 0.00 | 0.00 | 65 | 1015.8 |
| 20260506021538 | 69 | 136 | 0.0 | 2.0 | 0.00 | 0.00 | 0.00 | 64 | 1016.0 |
| 20260506020058 | 70 | 136 | 1.0 | 3.0 | 0.00 | 0.00 | 0.00 | 62 | 1015.6 |
| 20260506014529 | 71 | 135 | 2.0 | 4.0 | 0.00 | 0.00 | 0.00 | 60 | 1015.4 |
| 20260506013106 | 72 | 134 | 2.0 | 4.0 | 0.00 | 0.00 | 0.00 | 58 | 1015.2 |
| 20260506011532 | 73 | 135 | 2.0 | 6.0 | 0.00 | 0.00 | 0.00 | 57 | 1015.0 |
| 20260506010109 | 73 | 130 | 2.0 | 4.0 | 0.00 | 0.00 | 0.00 | 56 | 1015.0 |
| 20260506004529 | 74 | 139 | 3.0 | 7.0 | 0.00 | 0.00 | 0.00 | 55 | 1014.9 |
| 20260506003118 | 74 | 136 | 3.0 | 7.0 | 0.00 | 0.00 | 0.00 | 54 | 1014.7 |
| 20260506001533 | 75 | 132 | 3.0 | 9.0 | 0.00 | 0.00 | 0.00 | 54 | 1014.6 |
| 20260506000002 | 76 | 128 | 4.0 | 9.0 | 0.00 | 0.00 | 0.00 | 52 | 1014.3 |
| 20260505234602 | 77 | 117 | 5.0 | 11.0 | 0.00 | 0.00 | 0.00 | 52 | 1014.1 |
| 20260505233004 | 78 | 140 | 7.0 | 12.0 | 0.00 | 0.00 | 0.00 | 51 | 1014.0 |
| 20260505231547 | 78 | 134 | 5.0 | 11.0 | 0.00 | 0.00 | 0.00 | 50 | 1014.0 |
| 20260505230010 | 79 | 121 | 4.0 | 12.0 | 0.00 | 0.00 | 0.00 | 50 | 1014.0 |
| 20260505224539 | 80 | 131 | 6.0 | 12.0 | 0.00 | 0.00 | 0.00 | 48 | 1014.0 |
| 20260505223115 | 81 | 130 | 6.0 | 12.0 | 0.00 | 0.00 | 0.00 | 47 | 1013.8 |
| 20260505221534 | 82 | 132 | 8.0 | 14.0 | 0.00 | 0.00 | 0.00 | 46 | 1013.5 |
| 20260505220113 | 83 | 119 | 5.0 | 13.0 | 0.00 | 0.00 | 0.00 | 45 | 1013.5 |
| 20260505214544 | 86 | 174 | 2.0 | 7.0 | 0.00 | 0.00 | 0.00 | 38 | 1013.4 |
| 20260505213109 | 86 | 244 | 3.0 | 8.0 | 0.00 | 0.00 | 0.00 | 37 | 1013.5 |
| 20260505211539 | 86 | 147 | 3.0 | 10.0 | 0.00 | 0.00 | 0.00 | 39 | 1013.5 |
| 20260505210103 | 85 | 137 | 5.0 | 10.0 | 0.00 | 0.00 | 0.00 | 37 | 1013.6 |
| 20260505204518 | 86 | 251 | 1.0 | 5.0 | 0.00 | 0.00 | 0.00 | 37 | 1013.8 |
| 20260505203121 | 85 | 134 | 1.0 | 8.0 | 0.00 | 0.00 | 0.00 | 39 | 1014.0 |
| 20260505201508 | 84 | 149 | 1.0 | 7.0 | 0.00 | 0.00 | 0.00 | 39 | 1014.1 |
| 20260505200046 | 84 | 157 | 2.0 | 7.0 | 0.00 | 0.00 | 0.00 | 40 | 1014.4 |
| 20260505194509 | 85 | 155 | 2.0 | 8.0 | 0.00 | 0.00 | 0.00 | 39 | 1014.3 |
| 20260505193045 | 85 | 86 | 1.0 | 5.0 | 0.00 | 0.00 | 0.00 | 38 | 1014.5 |
| 20260505191508 | 83 | 179 | 0.0 | 10.0 | 0.00 | 0.00 | 0.00 | 40 | 1014.7 |
| 20260505190042 | 84 | 151 | 1.0 | 8.0 | 0.00 | 0.00 | 0.00 | 39 | 1014.8 |
| 20260505184508 | 83 | 82 | 2.0 | 7.0 | 0.00 | 0.00 | 0.00 | 41 | 1015.0 |
| 20260505183041 | 83 | 121 | 1.0 | 6.0 | 0.00 | 0.00 | 0.00 | 41 | 1015.3 |
| 20260505181608 | 84 | 121 | 3.0 | 9.0 | 0.00 | 0.00 | 0.00 | 41 | 1015.4 |
| 20260505180029 | 82 | 241 | 1.0 | 11.0 | 0.00 | 0.00 | 0.00 | 42 | 1015.5 |
| 20260505174604 | 83 | 266 | 1.0 | 10.0 | 0.00 | 0.00 | 0.00 | 42 | 1015.7 |
| 20260505173024 | 81 | 73 | 1.0 | 4.0 | 0.00 | 0.00 | 0.00 | 44 | 1015.8 |
| 20260505171605 | 80 | 134 | 2.0 | 6.0 | 0.00 | 0.00 | 0.00 | 45 | 1016.1 |
| 20260505170034 | 83 | 123 | 3.0 | 10.0 | 0.00 | 0.00 | 0.00 | 43 | 1016.1 |
| 20260505164554 | 80 | 136 | 1.0 | 6.0 | 0.00 | 0.00 | 0.00 | 45 | 1016.4 |
| 20260505163027 | 82 | 123 | 4.0 | 10.0 | 0.00 | 0.00 | 0.00 | 43 | 1016.4 |
| 20260505161605 | 81 | 114 | 2.0 | 7.0 | 0.00 | 0.00 | 0.00 | 46 | 1016.6 |
| 20260505153048 | 78 | 296 | 0.0 | 7.0 | 0.00 | 0.00 | 0.00 | 52 | 1016.8 |
| 20260505151611 | 79 | 146 | 2.0 | 9.0 | 0.00 | 0.00 | 0.00 | 53 | 1016.9 |